Location: Newark
(12.4436°N, 0.6167°W)
Time: 19:19:19
(UTC+00:00)

LightSail 2 - Visible Passes

Search period start: 11 November 2019 00:00
Search period end: 21 November 2019 00:00
Orbit: 702 x 726 km, 24.0° (Epoch: 10 November)

Date Brightness Start Highest point End Pass type
(mag) Time Alt. Az. Time Alt. Az. Time Alt. Az.
11 Nov 7.6 03:32:35 16° NE 03:32:35 16° NE 03:33:38 10° NE visible
11 Nov 6.6 05:11:35 14° NW 05:14:50 23° N 05:19:00 10° NE visible
12 Nov 6.6 04:17:28 25° N 04:17:28 25° N 04:21:06 10° NE visible
13 Nov 6.7 05:02:17 15° NW 05:04:59 22° N 05:09:00 10° NE visible
14 Nov 6.9 04:08:04 21° NNE 04:08:04 21° NNE 04:10:56 10° NE visible
15 Nov 6.7 04:52:49 17° NNW 04:55:06 23° N 04:59:13 10° ENE visible
16 Nov 7.1 03:58:33 19° NNE 03:58:33 19° NNE 04:00:59 10° NE visible
17 Nov 6.5 04:43:16 22° NNW 04:45:07 27° N 04:49:32 10° ENE visible
18 Nov 7.2 03:48:59 19° NE 03:48:59 19° NE 03:51:12 10° ENE visible
18 Nov 5.8 05:28:05 10° NW 05:33:04 46° NNE 05:38:03 10° E visible
18 Nov 7.7 19:43:07 10° S 19:43:34 11° S 19:43:34 11° S visible
19 Nov 6.1 04:33:41 31° NNW 04:35:02 36° NNE 04:39:48 10° E visible
20 Nov 7.2 03:39:24 20° NE 03:39:24 20° NE 03:41:29 10° ENE visible
20 Nov 5.3 05:18:23 14° WNW 05:22:48 72° NNE 05:28:00 10° ESE visible
20 Nov 6.9 19:31:11 10° SSW 19:34:01 22° S 19:34:01 22° S visible
